Satellite-Ground Cal/Val Region Overpasses Predictions

Prediction of Satellite NPP Overpassing Cal/Val Region: PacNW

Region Location: (Latitude: 10.00, Longitude: 139.50) to (Latitude: 22.70, Longitude: 165.60).

Table of predicted overpasses for the next 14.0 days since TLE Epoch: 12/5/2014
Interval Starting Time Starting Location Ending Time Ending Location
1 12/06/2014 02:22:51 ( 12.48, 165.59) 12/06/2014 02:25:45 ( 22.70, 163.15)
2 12/06/2014 04:03:39 ( 10.03, 140.78) 12/06/2014 04:05:13 ( 15.55, 139.51)
3 12/06/2014 14:54:02 ( 22.69, 163.36) 12/06/2014 14:57:38 ( 10.00, 160.36)
4 12/07/2014 03:44:36 ( 10.05, 145.53) 12/07/2014 03:48:11 ( 22.68, 142.54)
5 12/07/2014 14:37:59 ( 12.09, 165.59) 12/07/2014 14:38:34 ( 10.04, 165.12)
6 12/07/2014 16:16:29 ( 22.65, 142.74) 12/07/2014 16:20:04 ( 10.03, 139.74)
7 12/08/2014 03:25:33 ( 10.02, 150.30) 12/08/2014 03:29:08 ( 22.64, 147.31)
8 12/08/2014 15:57:26 ( 22.68, 147.50) 12/08/2014 16:01:01 ( 10.06, 144.51)
9 12/09/2014 03:06:30 ( 10.05, 155.05) 12/09/2014 03:10:05 ( 22.67, 152.06)
10 12/09/2014 15:38:23 ( 22.65, 152.25) 12/09/2014 15:41:58 ( 10.03, 149.26)
11 12/10/2014 02:47:27 ( 10.02, 159.81) 12/10/2014 02:51:02 ( 22.64, 156.82)
12 12/10/2014 15:19:20 ( 22.68, 157.01) 12/10/2014 15:22:55 ( 10.06, 154.02)
13 12/11/2014 02:28:24 ( 10.05, 164.56) 12/11/2014 02:31:59 ( 22.68, 161.57)
14 12/11/2014 15:00:17 ( 22.65, 161.76) 12/11/2014 15:03:52 ( 10.02, 158.77)
15 12/12/2014 03:50:51 ( 10.04, 143.95) 12/12/2014 03:54:26 ( 22.66, 140.96)
16 12/12/2014 14:42:19 ( 18.86, 165.59) 12/12/2014 14:44:49 ( 10.05, 163.53)
17 12/12/2014 16:22:44 ( 22.66, 141.15) 12/12/2014 16:24:40 ( 15.86, 139.50)
18 12/13/2014 03:31:47 ( 10.01, 148.71) 12/13/2014 03:35:23 ( 22.69, 145.70)
19 12/13/2014 16:03:40 ( 22.69, 145.91) 12/13/2014 16:07:16 ( 10.00, 142.91)
20 12/14/2014 03:12:45 ( 10.05, 153.46) 12/14/2014 03:16:20 ( 22.67, 150.47)
21 12/14/2014 15:44:38 ( 22.65, 150.66) 12/14/2014 15:48:13 ( 10.03, 147.67)
22 12/15/2014 02:53:42 ( 10.02, 158.22) 12/15/2014 02:57:17 ( 22.65, 155.23)
23 12/15/2014 15:25:34 ( 22.67, 155.42) 12/15/2014 15:29:09 ( 10.05, 152.43)
24 12/16/2014 02:34:38 ( 10.00, 162.98) 12/16/2014 02:38:14 ( 22.68, 159.98)
25 12/16/2014 15:06:31 ( 22.69, 160.19) 12/16/2014 15:10:07 ( 10.01, 157.18)
26 12/17/2014 02:18:12 ( 19.20, 165.59) 12/17/2014 02:19:11 ( 22.66, 164.74)
27 12/17/2014 03:57:06 ( 10.05, 142.35) 12/17/2014 04:00:31 ( 22.09, 139.51)
28 12/17/2014 14:47:28 ( 22.66, 164.93) 12/17/2014 14:51:03 ( 10.03, 161.94)
29 12/17/2014 16:28:58 ( 22.64, 139.56) 12/17/2014 16:29:01 ( 22.47, 139.51)
30 12/18/2014 03:38:02 ( 10.03, 147.12) 12/18/2014 03:41:37 ( 22.66, 144.13)
31 12/18/2014 16:09:55 ( 22.66, 144.32) 12/18/2014 16:13:30 ( 10.04, 141.33)
32 12/19/2014 03:18:59 ( 10.01, 151.88) 12/19/2014 03:22:35 ( 22.70, 148.87)


NCC Satellite Cal/Val Overpasses Prediction Service
